FW0019 Weather Reports


time (UTC)temp
F
wind
direction
speed
knots
gust
knots
rain 1hr
in
rain 24hr
in
rain mn
in
humidity
%
barometer
mb
20260503214532 54 128 8.7 13.9 0.00 0.00 0.00 86 875.1
20260503213010 55 153 7.8 14.8 0.00 0.00 0.00 83 875.3
20260503211510 54 119 8.7 15.6 0.00 0.00 0.00 85 875.3
20260503210010 54 148 10.4 15.6 0.00 0.00 0.00 87 875.4
20260503204510 53 120 7.8 13.0 0.00 0.00 0.00 89 875.5
20260503203008 51 105 6.1 14.8 0.00 0.00 0.00 92 875.6
20260503201508 51 157 8.7 17.4 0.00 0.00 0.00 92 875.7
20260503200005 52 140 10.4 14.8 0.00 0.00 0.00 90 875.7
20260503194503 53 129 11.3 18.2 0.00 0.00 0.00 87 875.7
20260503193105 56 142 11.3 18.2 0.00 0.00 0.00 83 875.8
20260503191607 59 118 11.3 17.4 0.00 0.00 0.00 77 875.8
20260503184622 63 104 6.1 9.6 0.00 0.00 0.00 63 876.0
20260503183100 67 95 4.3 14.8 0.00 0.00 0.00 37 876.2
20260503181611 62 261 3.5 7.8 0.00 0.00 0.00 44 876.3
20260503180111 58 80 2.6 9.6 0.00 0.00 0.00 75 876.5
20260503174557 59 135 5.2 10.4 0.00 0.00 0.00 75 876.5
20260503173100 58 158 7.0 10.4 0.00 0.00 0.00 73 876.2
20260503171552 59 163 5.2 9.6 0.00 0.00 0.00 71 876.3
20260503081558 54 121 1.7 3.5 0.00 0.00 0.00 41 876.6
20260503080106 53 336 0.0 0.0 0.00 0.00 0.00 44 876.9
20260503071550 58 43 0.0 1.7 0.00 0.00 0.00 35 877.3
20260503054541 52 284 0.0 0.0 0.00 0.00 0.00 67 877.7
20260503053041 52 285 0.0 0.0 0.00 0.00 0.00 52 877.7
20260503051541 52 284 0.0 0.0 0.00 0.00 0.00 60 877.6
20260503050040 52 285 0.0 2.6 0.00 0.00 0.00 65 877.5
20260503044544 52 284 0.0 1.7 0.00 0.00 0.00 65 877.4
20260503043039 53 285 0.0 0.0 0.00 0.00 0.00 61 877.3
20260503041539 54 284 0.9 2.6 0.00 0.00 0.00 53 877.2
20260503040038 54 284 0.0 1.7 0.00 0.00 0.00 48 877.1
20260503034538 55 285 0.0 0.0 0.00 0.00 0.00 50 877.0
20260503033039 56 284 0.0 1.7 0.00 0.00 0.00 44 876.8
20260503031536 58 284 0.0 0.9 0.00 0.00 0.00 49 876.7
20260503030049 59 284 0.0 2.6 0.00 0.00 0.00 41 876.7
20260503024540 60 287 0.0 2.6 0.00 0.00 0.00 38 876.6
20260503023035 61 78 0.0 2.6 0.00 0.00 0.00 40 876.5
20260503021538 62 94 1.7 5.2 0.00 0.00 0.00 41 876.4
20260503020033 63 100 2.6 6.1 0.00 0.00 0.00 56 876.4
20260503014535 64 104 2.6 6.1 0.00 0.00 0.00 62 876.4
20260503013032 65 157 6.1 11.3 0.00 0.00 0.00 54 876.3
20260503011533 65 141 5.2 11.3 0.00 0.00 0.00 50 876.2
20260503010032 67 129 6.1 11.3 0.00 0.00 0.00 62 876.2
20260503004531 68 163 6.1 11.3 0.00 0.00 0.00 60 876.2
20260503003030 69 175 7.0 11.3 0.00 0.00 0.00 58 876.2
20260503001529 70 132 5.2 11.3 0.00 0.00 0.00 57 876.2
20260503000033 70 165 7.8 13.9 0.00 0.00 0.00 48 876.1
20260502234529 72 156 6.1 12.2 0.00 0.00 0.00 48 876.1
20260502233026 72 148 6.1 12.2 0.00 0.00 0.00 45 876.2
20260502231526 72 147 7.8 11.3 0.00 0.00 0.00 40 876.2
20260502230025 71 109 7.8 13.9 0.00 0.00 0.00 49 876.4
20260502224524 72 144 9.6 14.8 0.00 0.00 0.00 45 876.4
20260502223022 73 137 6.1 13.0 0.00 0.00 0.00 41 876.8
20260502221521 73 137 6.1 10.4 0.00 0.00 0.00 41 877.0
20260502220022 73 131 7.8 14.8 0.00 0.00 0.00 48 877.1